[[{"header":{"parameterUnit":"m.s-1","parameterCategory":2,"la1":30.2992,"la2":30.254,"lo1":-89.0895,"lo2":-89.0443,"dy":0.0025,"dx":0.0025,"nx":19,"ny":19,"refTime":"2026-05-03T21:00:00:Z","depth":"0","parameterNumber":2,"parameterNumberName":"U-component_of_CURRENTS"},"data":[0,0,0,-0.1883,-0.1883,-0.1886,-0.1886,-0.1866,-0.1866,0,0,0,0,0,0,0,0,0,0,0,-0.1875,-0.1875,-0.1883,-0.1883,-0.1886,-0.1886,-0.1866,-0.1866,0,0,0,0,0,0,0,0,0,0,0,-0.1875,-0.1875,-0.1875,-0.1883,-0.1886,-0.1886,-0.1866,-0.1868,0,0,0,0,0,0,0,0,0,0,-0.1868,-0.1861,-0.1875,-0.1875,-0.1883,-0.1886,-0.1886,-0.1868,-0.1868,-0.1861,0,-0.1861,0,-0.1869,-0.1865,-0.1865,0,0,0,-0.1876,-0.1861,-0.187,-0.1875,-0.1884,-0.1886,-0.1883,-0.1868,-0.1868,-0.186,-0.1861,-0.1861,-0.1869,-0.1865,-0.1865,-0.1875,-0.1876,0,0,-0.1876,-0.1867,-0.187,-0.187,-0.1884,-0.1883,-0.1883,-0.1868,-0.1862,-0.1861,-0.1861,-0.1869,-0.1865,-0.1864,-0.1875,-0.1875,0,0,0,-0.188,-0.1867,-0.1876,-0.187,-0.1876,-0.1883,-0.1883,-0.1863,-0.1868,-0.186,-0.1868,-0.1864,-0.1864,-0.1875,-0.1875,-0.1925,0,0,0,-0.188,-0.1871,-0.1876,-0.1869,-0.1876,-0.1872,-0.1878,-0.1869,-0.1868,-0.1869,-0.1864,-0.1864,-0.1875,-0.1875,-0.1923,-0.1917,0,0,0,-0.1875,-0.187,-0.1872,-0.1869,-0.1875,-0.1872,-0.1876,-0.1869,-0.1873,-0.1865,-0.1864,-0.1874,-0.1875,-0.1921,-0.1915,-0.1871,0,0,0,-0.1863,-0.1879,-0.1871,-0.1895,-0.1875,-0.1907,-0.1876,-0.1892,-0.189,-0.1864,-0.1875,-0.1875,-0.1921,-0.1914,-0.187,-0.1607,-0.1587,0,0,-0.1883,-0.1881,-0.1899,-0.1893,-0.1935,-0.1906,-0.1938,-0.1919,-0.1894,-0.1876,-0.1876,-0.1924,-0.1915,-0.187,-0.1641,-0.1619,0,0,0,-0.1907,-0.1913,-0.1927,-0.1945,-0.1964,-0.1966,-0.1956,-0.1942,-0.1929,-0.1896,-0.1922,-0.1914,-0.1884,-0.1725,-0.1709,-0.1532,-0.1878,-0.1878,-0.1878,-0.1897,-0.1926,-0.1952,-0.1983,-0.2001,-0.2009,-0.2002,-0.1976,-0.1966,-0.1966,-0.1954,-0.1952,-0.1785,-0.1769,-0.1593,-0.1968,-0.1968,-0.1969,-0.1969,-0.1909,-0.191,-0.1955,-0.1987,-0.2008,-0.2026,-0.2031,-0.2023,-0.1989,-0.1992,-0.1961,-0.1785,-0.1753,-0.1572,-0.1972,-0.1971,-0.1971,-0.1971,-0.197,-0.1871,-0.1872,-0.1907,-0.1948,-0.1985,-0.2019,-0.2005,-0.2034,-0.2004,-0.1996,-0.1769,-0.1765,-0.1598,-0.1973,-0.1973,-0.1972,-0.1972,-0.1972,-0.1972,-0.1792,-0.1833,-0.1846,-0.1903,-0.1932,-0.1965,-0.1988,-0.1944,-0.183,-0.177,-0.1767,-0.1549,-0.1951,-0.1943,-0.1969,-0.197,-0.197,-0.197,-0.1971,-0.1697,-0.1729,-0.1744,-0.1776,-0.1834,-0.1726,-0.183,-0.1613,-0.1591,-0.1453,-0.1248,-0.1624,-0.1563,-0.1572,-0.1553,-0.1477,-0.1477,-0.1477,-0.1477,-0.1611,-0.1637,-0.1623,-0.1645,-0.1658,-0.161,-0.1289,-0.1134,-0.0968,-0.0838,-0.0953,-0.0888,-0.0916,-0.0817,-0.0843,-0.081,-0.0547,-0.0546,-0.0545,-0.1524,-0.1548,-0.1484,-0.1526,-0.155,-0.1368,-0.0909,-0.0552,-0.0404,-0.0503,-0.0766,-0.0805,-0.0717,-0.0775,-0.0628,-0.0679,-0.063,0,0]},{"header":{"parameterUnit":"m.s-1","parameterCategory":2,"la1":30.2992,"la2":30.254,"lo1":-89.0895,"lo2":-89.0443,"dy":0.0025,"dx":0.0025,"nx":19,"ny":19,"refTime":"2026-05-03T21:00:00:Z","depth":"0","parameterNumber":3,"parameterNumberName":"V-component_of_CURRENTS"},"data":[0,0,0,-0.0279,-0.0278,-0.0229,-0.0228,-0.0125,-0.0124,0,0,0,0,0,0,0,0,0,0,0,-0.0296,-0.0296,-0.0279,-0.0278,-0.0229,-0.0228,-0.0125,-0.0124,0,0,0,0,0,0,0,0,0,0,0,-0.0296,-0.0296,-0.0296,-0.0278,-0.0229,-0.0228,-0.0125,-0.017,0,0,0,0,0,0,0,0,0,0,-0.0222,-0.0249,-0.0296,-0.0296,-0.0278,-0.0229,-0.0228,-0.0172,-0.0167,-0.014,0,-0.014,0,-0.0134,-0.0117,-0.0117,0,0,0,-0.0266,-0.0254,-0.0241,-0.0296,-0.0278,-0.0229,-0.0248,-0.0169,-0.0163,-0.0132,-0.0139,-0.0135,-0.0132,-0.0116,-0.0116,-0.0029,-0.0028,0,0,-0.0269,-0.0282,-0.0245,-0.0237,-0.0274,-0.0249,-0.0246,-0.0166,-0.0163,-0.0138,-0.0133,-0.013,-0.0116,-0.0115,-0.0029,-0.0029,0,0,0,-0.0285,-0.0284,-0.0273,-0.0241,-0.0238,-0.0248,-0.0245,-0.0166,-0.0163,-0.0132,-0.0129,-0.0115,-0.0114,-0.0029,-0.0029,-0.0092,0,0,0,-0.0286,-0.0294,-0.0275,-0.0281,-0.024,-0.0208,-0.0247,-0.0169,-0.016,-0.013,-0.0115,-0.0113,-0.0029,-0.0029,-0.0091,-0.0105,0,0,0,-0.0297,-0.0295,-0.0293,-0.0282,-0.0266,-0.0209,-0.0201,-0.0167,-0.0158,-0.0117,-0.0113,-0.0029,-0.0029,-0.009,-0.0103,0.0007,0,0,0,-0.0306,-0.0336,-0.0293,-0.0322,-0.0267,-0.0259,-0.0201,-0.0185,-0.0157,-0.0115,-0.0029,-0.0029,-0.0089,-0.0102,0.0006,0.0198,0.0218,0,0,-0.0357,-0.0342,-0.0361,-0.0322,-0.0341,-0.0264,-0.0253,-0.0191,-0.0134,-0.0051,-0.0049,-0.0091,-0.0103,0.0006,0.0225,0.0244,0,0,0,-0.0386,-0.04,-0.0398,-0.0394,-0.0363,-0.0309,-0.0247,-0.0197,-0.012,-0.0115,-0.0063,-0.0068,0.0003,0.0118,0.0133,0.0314,-0.0027,-0.0027,-0.0027,-0.0466,-0.0451,-0.0477,-0.0448,-0.0423,-0.0337,-0.0279,-0.0187,-0.015,-0.0116,-0.01,-0.0035,0.0083,0.0098,0.0279,-0.0083,-0.0084,-0.0084,-0.0084,-0.0548,-0.0565,-0.0522,-0.0544,-0.0467,-0.0435,-0.0295,-0.0242,-0.0107,-0.0116,-0.0043,0.0068,0.0111,0.0299,-0.0087,-0.0087,-0.0086,-0.0086,-0.0086,-0.0605,-0.0611,-0.0613,-0.0613,-0.0568,-0.048,-0.0341,-0.0266,-0.0146,-0.0095,0.0135,0.0139,0.0297,-0.0029,-0.0029,-0.0029,-0.0028,-0.0028,-0.0028,-0.0662,-0.0662,-0.0688,-0.0676,-0.065,-0.0556,-0.0366,-0.0214,0.0016,0.0115,0.0119,0.0364,-0.0015,-0.0026,-0.0022,-0.0023,-0.0024,-0.0024,-0.0024,-0.0733,-0.0727,-0.0761,-0.0751,-0.064,-0.0404,-0.0291,0.0107,0.0242,0.0405,0.0633,0.0275,0.0343,0.0334,0.0335,0.0433,0.0433,0.0433,0.0433,-0.0771,-0.0776,-0.0769,-0.0706,-0.056,-0.0308,0.0167,0.0456,0.0761,0.0935,0.0918,0.0937,0.091,0.101,0.0986,0.1,0.1264,0.1265,0.1266,-0.0803,-0.0798,-0.076,-0.067,-0.0479,-0.0086,0.0467,0.0862,0.1195,0.1309,0.1131,0.1096,0.1122,0.1066,0.1216,0.1167,0.1186,0,0]}],[{"header":{"parameterUnit":"m.s-1","parameterCategory":2,"la1":30.2992,"la2":30.254,"lo1":-89.0895,"lo2":-89.0443,"dy":0.0025,"dx":0.0025,"nx":19,"ny":19,"refTime":"2026-05-03T21:00:00:Z","depth":"2","parameterNumber":2,"parameterNumberName":"U-component_of_CURRENTS"},"data":[0,0,0,-0.1868,-0.1869,-0.1875,-0.1875,-0.1857,-0.1857,0,0,0,0,0,0,0,0,0,0,0,-0.1859,-0.1859,-0.1868,-0.1869,-0.1875,-0.1875,-0.1857,-0.1857,0,0,0,0,0,0,0,0,0,0,0,-0.1859,-0.1859,-0.1859,-0.1869,-0.1875,-0.1875,-0.1857,-0.1857,0,0,0,0,0,0,0,0,0,0,-0.1853,-0.1846,-0.1859,-0.1859,-0.1869,-0.1875,-0.1875,-0.1857,-0.1857,-0.1849,0,-0.1851,0,-0.1859,-0.1856,-0.1856,0,0,0,-0.1861,-0.1846,-0.1856,-0.1859,-0.1869,-0.1875,-0.187,-0.1857,-0.1857,-0.1849,-0.185,-0.185,-0.1859,-0.1856,-0.1856,-0.1865,-0.1866,0,0,-0.1861,-0.1852,-0.1856,-0.1855,-0.1871,-0.187,-0.187,-0.1857,-0.1852,-0.185,-0.185,-0.1859,-0.1856,-0.1856,-0.1865,-0.1866,0,0,0,-0.1865,-0.1852,-0.1861,-0.1856,-0.1862,-0.187,-0.1871,-0.1852,-0.1858,-0.185,-0.1859,-0.1856,-0.1855,-0.1865,-0.1865,-0.1914,0,0,0,-0.1864,-0.1855,-0.1861,-0.1855,-0.1863,-0.186,-0.1866,-0.1858,-0.1858,-0.1859,-0.1856,-0.1855,-0.1865,-0.1865,-0.1913,-0.1906,0,0,0,-0.1858,-0.1854,-0.1857,-0.1854,-0.1863,-0.1861,-0.1865,-0.1858,-0.1863,-0.1856,-0.1855,-0.1865,-0.1865,-0.1911,-0.1904,-0.1863,0,0,0,-0.1847,-0.1863,-0.1856,-0.1881,-0.1863,-0.1896,-0.1865,-0.1882,-0.1881,-0.1856,-0.1865,-0.1865,-0.191,-0.1903,-0.1863,-0.1609,-0.159,0,0,-0.1868,-0.1865,-0.1884,-0.1879,-0.1921,-0.1894,-0.1926,-0.1909,-0.1884,-0.1865,-0.1866,-0.1913,-0.1904,-0.1863,-0.1641,-0.162,0,0,0,-0.1892,-0.1899,-0.1913,-0.1932,-0.1951,-0.1954,-0.1945,-0.1931,-0.1918,-0.1886,-0.1911,-0.1902,-0.1875,-0.1721,-0.1706,-0.1868,-0.1868,-0.1868,-0.1868,-0.1884,-0.1912,-0.1939,-0.197,-0.1988,-0.1997,-0.199,-0.1964,-0.1954,-0.1954,-0.1942,-0.1941,-0.178,-0.1765,-0.1955,-0.1956,-0.1956,-0.1956,-0.1956,-0.1897,-0.1898,-0.1942,-0.1975,-0.1995,-0.2013,-0.2017,-0.2009,-0.1977,-0.1978,-0.1949,-0.178,-0.175,-0.196,-0.1959,-0.1959,-0.1958,-0.1958,-0.1958,-0.186,-0.1861,-0.1896,-0.1937,-0.1972,-0.2006,-0.1992,-0.2019,-0.1991,-0.1984,-0.1766,-0.1762,-0.1936,-0.1963,-0.1963,-0.1963,-0.1963,-0.1963,-0.1963,-0.1783,-0.1823,-0.1836,-0.1891,-0.1918,-0.195,-0.1975,-0.1934,-0.1825,-0.1767,-0.1764,-0.1942,-0.1941,-0.1934,-0.196,-0.196,-0.1961,-0.1961,-0.1961,-0.169,-0.172,-0.1735,-0.1765,-0.182,-0.1723,-0.1825,-0.1623,-0.16,-0.1469,-0.1619,-0.1628,-0.1568,-0.1577,-0.156,-0.1487,-0.1487,-0.1487,-0.1487,-0.1604,-0.1629,-0.1614,-0.1633,-0.1644,-0.161,-0.1328,-0.1202,-0.1189,-0.1196,-0.1209,-0.1172,-0.1195,-0.1115,-0.1135,-0.1109,-0.0919,-0.0918,-0.0918,-0.1516,-0.1541,-0.1475,-0.1515,-0.1535,-0.1382,-0.0986,-0.066,-0.066,-0.0907,-0.123,-0.1425,-0.1404,-0.1428,-0.1333,-0.1354,-0.1323,0,0]},{"header":{"parameterUnit":"m.s-1","parameterCategory":2,"la1":30.2992,"la2":30.254,"lo1":-89.0895,"lo2":-89.0443,"dy":0.0025,"dx":0.0025,"nx":19,"ny":19,"refTime":"2026-05-03T21:00:00:Z","depth":"2","parameterNumber":3,"parameterNumberName":"V-component_of_CURRENTS"},"data":[0,0,0,-0.0334,-0.0334,-0.0284,-0.0284,-0.0185,-0.0184,0,0,0,0,0,0,0,0,0,0,0,-0.0351,-0.0351,-0.0334,-0.0334,-0.0284,-0.0284,-0.0185,-0.0184,0,0,0,0,0,0,0,0,0,0,0,-0.0351,-0.0351,-0.0351,-0.0334,-0.0284,-0.0284,-0.0185,-0.0229,0,0,0,0,0,0,0,0,0,0,-0.028,-0.0307,-0.0351,-0.0351,-0.0333,-0.0284,-0.0284,-0.0231,-0.0226,-0.02,0,-0.02,0,-0.0194,-0.0177,-0.0177,0,0,0,-0.0323,-0.0311,-0.0298,-0.0351,-0.0333,-0.0284,-0.0303,-0.0228,-0.0222,-0.0193,-0.0199,-0.0196,-0.0192,-0.0177,-0.0176,-0.009,-0.009,0,0,-0.0325,-0.0338,-0.0302,-0.0295,-0.0329,-0.0305,-0.0302,-0.0225,-0.0222,-0.0199,-0.0193,-0.019,-0.0176,-0.0175,-0.009,-0.009,0,0,0,-0.0341,-0.034,-0.0329,-0.0299,-0.0295,-0.0304,-0.03,-0.0225,-0.0222,-0.0192,-0.0189,-0.0175,-0.0174,-0.009,-0.009,-0.0153,0,0,0,-0.0342,-0.035,-0.0331,-0.0337,-0.0297,-0.0265,-0.0302,-0.0227,-0.0218,-0.019,-0.0175,-0.0173,-0.0091,-0.009,-0.0151,-0.017,0,0,0,-0.0352,-0.0351,-0.0348,-0.0338,-0.0321,-0.0266,-0.0258,-0.0225,-0.0217,-0.0177,-0.0173,-0.0091,-0.009,-0.015,-0.0168,-0.0068,0,0,0,-0.0362,-0.0389,-0.0349,-0.0374,-0.0322,-0.0312,-0.0258,-0.0241,-0.0214,-0.0175,-0.0091,-0.009,-0.015,-0.0166,-0.0069,0.0067,0.0081,0,0,-0.0409,-0.0395,-0.0411,-0.0375,-0.0391,-0.0317,-0.0306,-0.0247,-0.0191,-0.0112,-0.011,-0.0152,-0.0167,-0.0068,0.0097,0.0111,0,0,0,-0.0435,-0.0448,-0.0446,-0.0441,-0.041,-0.036,-0.0299,-0.0251,-0.0177,-0.0173,-0.0123,-0.013,-0.0065,0.0015,0.0026,-0.0088,-0.0088,-0.0088,-0.0088,-0.0511,-0.0497,-0.0521,-0.0494,-0.0469,-0.0386,-0.0332,-0.0244,-0.0205,-0.0172,-0.0161,-0.0102,-0.0019,-0.0009,-0.0141,-0.0141,-0.0141,-0.0141,-0.0141,-0.0592,-0.0609,-0.0568,-0.0588,-0.0515,-0.0484,-0.0351,-0.0299,-0.0172,-0.0176,-0.0109,-0.0031,-0.0,-0.0146,-0.0145,-0.0144,-0.0144,-0.0143,-0.0143,-0.0649,-0.0655,-0.0657,-0.0659,-0.0618,-0.0532,-0.0407,-0.0333,-0.0213,-0.0167,0.002,0.0023,-0.0106,-0.0105,-0.0104,-0.0104,-0.0104,-0.0103,-0.0103,-0.0707,-0.0707,-0.0735,-0.0725,-0.0704,-0.0619,-0.0438,-0.0297,-0.0094,-0.0008,-0.0005,-0.0087,-0.0088,-0.01,-0.0098,-0.0099,-0.01,-0.01,-0.01,-0.078,-0.0774,-0.0814,-0.0809,-0.0714,-0.056,-0.042,-0.0075,0.0074,0.0209,0.0128,0.012,0.018,0.0173,0.017,0.0242,0.0242,0.0242,0.0242,-0.0821,-0.0826,-0.0833,-0.0785,-0.0663,-0.0502,-0.02,-0.0031,0.0144,0.0166,0.0167,0.013,0.0122,0.0174,0.0167,0.0163,0.0232,0.0231,0.0231,-0.0857,-0.0857,-0.0833,-0.0759,-0.06,-0.0368,-0.0115,0.0039,0.0188,0.0213,-0.0012,0.0276,0.0229,0.0212,0.0299,0.0285,0.0281,0,0]}],[{"header":{"parameterUnit":"m.s-1","parameterCategory":2,"la1":30.2992,"la2":30.254,"lo1":-89.0895,"lo2":-89.0443,"dy":0.0025,"dx":0.0025,"nx":19,"ny":19,"refTime":"2026-05-03T21:00:00:Z","depth":"4","parameterNumber":2,"parameterNumberName":"U-component_of_CURRENTS"},"data":[0,0,0,-0.1408,-0.1411,-0.1525,-0.1525,-0.1573,-0.1573,0,0,0,0,0,0,0,0,0,0,0,-0.1369,-0.137,-0.1408,-0.1411,-0.1525,-0.1525,-0.1573,-0.1573,0,0,0,0,0,0,0,0,0,0,0,-0.1369,-0.137,-0.1371,-0.1411,-0.1525,-0.1525,-0.1573,-0.151,0,0,0,0,0,0,0,0,0,0,-0.1411,-0.1391,-0.137,-0.1371,-0.1412,-0.1525,-0.1525,-0.1508,-0.1514,-0.1494,0,-0.1522,0,-0.1549,-0.1574,-0.1574,0,0,0,-0.1406,-0.1387,-0.1418,-0.1371,-0.1413,-0.1525,-0.1472,-0.1512,-0.1518,-0.1501,-0.1523,-0.1526,-0.1549,-0.1574,-0.1574,-0.1602,-0.1602,0,0,-0.14,-0.1386,-0.1414,-0.1422,-0.1454,-0.1469,-0.1476,-0.1517,-0.1525,-0.1523,-0.1527,-0.155,-0.1575,-0.1575,-0.1602,-0.1602,0,0,0,-0.1385,-0.1381,-0.1413,-0.142,-0.1449,-0.1472,-0.148,-0.1524,-0.1536,-0.1528,-0.1551,-0.1575,-0.1575,-0.1602,-0.1602,-0.1639,0,0,0,-0.1381,-0.1373,-0.1411,-0.1402,-0.1449,-0.1502,-0.1486,-0.1533,-0.1539,-0.1551,-0.1575,-0.1575,-0.1602,-0.1602,-0.1638,-0.1631,0,0,0,-0.1362,-0.1371,-0.1388,-0.1401,-0.1453,-0.1502,-0.1517,-0.1535,-0.1552,-0.1574,-0.1575,-0.1601,-0.1602,-0.1637,-0.1629,-0.1576,0,0,0,-0.1336,-0.1368,-0.1388,-0.1432,-0.1453,-0.152,-0.1517,-0.157,-0.1595,-0.1575,-0.1602,-0.1602,-0.1636,-0.1629,-0.1576,-0.1338,0,0,0,-0.1357,-0.137,-0.1396,-0.1417,-0.1481,-0.1503,-0.1561,-0.1594,-0.1587,-0.158,-0.1581,-0.1638,-0.1629,-0.1576,-0.1362,0,0,0,0,-0.139,-0.1408,-0.1432,-0.1478,-0.1526,-0.1567,-0.1606,-0.1612,-0.163,-0.1605,-0.1635,-0.1628,-0.1593,-0.1455,-0.1604,-0.1604,-0.1604,-0.1604,-0.1604,-0.1377,-0.1415,-0.146,-0.1512,-0.1556,-0.1615,-0.1638,-0.1647,-0.1652,-0.1662,-0.1657,-0.1639,-0.1498,-0.1667,-0.1667,-0.1668,-0.1668,-0.1668,-0.1668,-0.1388,-0.1401,-0.1468,-0.1526,-0.1579,-0.1629,-0.1666,-0.1679,-0.1666,-0.1681,-0.1646,-0.1505,-0.1671,-0.1671,-0.167,-0.167,-0.1669,-0.1669,-0.1669,-0.1349,-0.1358,-0.142,-0.1497,-0.1566,-0.1633,-0.1615,-0.167,-0.1675,-0.1666,-0.1466,-0.1633,-0.1627,-0.1638,-0.1638,-0.1637,-0.1637,-0.1637,-0.1637,-0.1264,-0.1326,-0.1355,-0.1459,-0.1488,-0.153,-0.1582,-0.1542,-0.1576,-0.1453,-0.1655,-0.1627,-0.1628,-0.1623,-0.1633,-0.1634,-0.1634,-0.1635,-0.1635,-0.1177,-0.122,-0.1229,-0.1261,-0.13,-0.1313,-0.1422,-0.1322,-0.1249,-0.1171,-0.1318,-0.1335,-0.1279,-0.1288,-0.1269,-0.1175,-0.1172,-0.1169,0,-0.1093,-0.1126,-0.1066,-0.103,-0.0994,-0.1125,-0.0984,-0.0988,-0.103,-0.0993,-0.1224,-0.1391,-0.1402,-0.1344,-0.1346,-0.1324,0,0,0,-0.1018,-0.1004,-0.0893,-0.0866,-0.081,-0.0807,-0.0917,-0.0845,-0.1078,-0.0944,-0.1091,-0.1111,-0.1416,-0.1622,-0.1576,-0.1577,-0.1565,0,0]},{"header":{"parameterUnit":"m.s-1","parameterCategory":2,"la1":30.2992,"la2":30.254,"lo1":-89.0895,"lo2":-89.0443,"dy":0.0025,"dx":0.0025,"nx":19,"ny":19,"refTime":"2026-05-03T21:00:00:Z","depth":"4","parameterNumber":3,"parameterNumberName":"V-component_of_CURRENTS"},"data":[0,0,0,-0.031,-0.031,-0.0284,-0.0284,-0.0217,-0.0217,0,0,0,0,0,0,0,0,0,0,0,-0.032,-0.032,-0.031,-0.031,-0.0284,-0.0284,-0.0217,-0.0217,0,0,0,0,0,0,0,0,0,0,0,-0.032,-0.032,-0.032,-0.031,-0.0284,-0.0284,-0.0218,-0.0243,0,0,0,0,0,0,0,0,0,0,-0.0272,-0.0291,-0.032,-0.032,-0.0309,-0.0284,-0.0284,-0.0245,-0.0242,-0.0222,0,-0.0225,0,-0.0221,-0.0212,-0.0212,0,0,0,-0.0302,-0.0294,-0.0285,-0.032,-0.0309,-0.0284,-0.0293,-0.0243,-0.024,-0.0217,-0.0224,-0.0221,-0.022,-0.0212,-0.0211,-0.0132,-0.0131,0,0,-0.0303,-0.0313,-0.0288,-0.0283,-0.031,-0.0294,-0.0293,-0.0242,-0.0241,-0.0223,-0.022,-0.0219,-0.0211,-0.0211,-0.0132,-0.0132,0,0,0,-0.0313,-0.0314,-0.0307,-0.0286,-0.0285,-0.0294,-0.0292,-0.0243,-0.0241,-0.0219,-0.0218,-0.0211,-0.021,-0.0132,-0.0132,-0.019,0,0,0,-0.0313,-0.032,-0.0308,-0.0313,-0.0287,-0.027,-0.0295,-0.0245,-0.0239,-0.0219,-0.0211,-0.021,-0.0133,-0.0132,-0.0189,-0.0228,0,0,0,-0.0319,-0.0321,-0.032,-0.0314,-0.0306,-0.027,-0.0265,-0.0243,-0.0238,-0.0212,-0.0209,-0.0133,-0.0132,-0.0188,-0.0226,-0.0236,0,0,0,-0.0326,-0.0332,-0.032,-0.0324,-0.0307,-0.0288,-0.0265,-0.0248,-0.0228,-0.0211,-0.0133,-0.0132,-0.0188,-0.0225,-0.0235,-0.0314,0,0,0,-0.0336,-0.0333,-0.0334,-0.0324,-0.0324,-0.029,-0.0276,-0.0244,-0.0204,-0.0147,-0.0145,-0.0189,-0.0226,-0.0236,-0.0259,0,0,0,0,-0.0339,-0.0348,-0.0342,-0.0342,-0.0319,-0.0308,-0.0267,-0.0239,-0.0193,-0.0189,-0.0155,-0.0175,-0.018,-0.022,-0.0128,-0.0128,-0.0128,-0.0128,-0.0128,-0.0377,-0.0367,-0.038,-0.0369,-0.0353,-0.0313,-0.0292,-0.024,-0.0201,-0.018,-0.0197,-0.021,-0.0251,-0.0158,-0.0158,-0.0159,-0.0159,-0.0159,-0.0159,-0.0422,-0.044,-0.0426,-0.044,-0.0414,-0.0399,-0.0324,-0.0292,-0.0242,-0.0207,-0.0208,-0.0246,-0.0164,-0.0163,-0.0162,-0.0162,-0.0161,-0.0161,-0.0161,-0.0467,-0.0476,-0.0487,-0.0515,-0.0516,-0.0472,-0.0471,-0.0389,-0.0306,-0.0301,-0.0325,-0.0242,-0.0268,-0.0298,-0.0298,-0.0299,-0.0299,-0.0299,-0.0299,-0.0516,-0.0523,-0.0581,-0.0596,-0.0627,-0.063,-0.0561,-0.0537,-0.044,-0.04,-0.032,-0.0257,-0.0252,-0.0273,-0.0302,-0.0302,-0.0301,-0.0301,-0.0301,-0.0579,-0.0591,-0.068,-0.0729,-0.0803,-0.0794,-0.0722,-0.0643,-0.0617,-0.0572,-0.0438,-0.043,-0.0418,-0.0409,-0.0436,-0.0514,-0.0516,-0.0517,0,-0.063,-0.0639,-0.0784,-0.0892,-0.0965,-0.0911,-0.0886,-0.0823,-0.0683,-0.0665,-0.0638,-0.0492,-0.0483,-0.0474,-0.0468,-0.0503,0,0,0,-0.0687,-0.0726,-0.0849,-0.0962,-0.1052,-0.0973,-0.0884,-0.0857,-0.067,-0.0678,-0.0546,-0.0538,-0.0488,-0.0312,-0.0274,-0.0268,-0.0301,0,0]}]]